Weather History for Ponca City, OK

Change the Weather History Date:

Tuesday, February 5, 2013

  Actual Average Record
Temperature  
Mean Temperature 46 °F -  
Max Temperature 66 °F 58 °F 75 °F (1963)
Min Temperature 25 °F 32 °F 6 °F (2014)
Degree Days  
Heating Degree Days 20    
Moisture  
Dew Point 28 °F    
Average Humidity 60    
Maximum Humidity 89    
Minimum Humidity 22    
Precipitation  
Precipitation 0.00 in - - ()
Sea Level Pressure  
Sea Level Pressure 30.00 in    
Wind  
Wind Speed 3 mph (NW)    
Max Wind Speed 9 mph    
Max Gust Speed -    
Visibility 9 miles    
Events      
Averages and records for this station are not official NWS values.
T = Trace of Precipitation, MM = Missing Value Source: NWS Daily Summary

Daily Weather History Graph

Daily Weather History Graph

Search for Another Location

Airport:

Trip Planner

Search our weather history database for the weather conditions in past years. The results will help you decide how hot, cold, wet, or windy it might be!

Date:

Astronomy

Feb. 05, 2013 Rise Set
Actual Time 7:26 AM CST 5:58 PM CST
Civil Twilight 6:59 AM CST 6:25 PM CST
Nautical Twilight 6:28 AM CST 6:56 PM CST
Astronomical Twilight 5:58 AM CST 7:26 PM CST
Moon 3:07 AM CST (2/5) 1:20 PM CST (2/5)
Length of Visible Light 11h 25m
Length of Day
10h 32m
Waning Crescent, 26% of the Moon is Illuminated
Feb 5
Waning Crescent
Feb 10
New
Feb 17
First Quarter
Feb 25
Full
Mar 4
Last Quarter

Hourly Weather History & Observations

Time (CST) Temp. Windchill Dew Point Humidity Pressure Visibility Wind Dir Wind Speed Gust Speed Precip Events Conditions
12:53 AM 37.0 °F 33.3 °F 28.0 °F 70% 29.94 in 10.0 mi SE 4.6 mph - N/A   Clear
1:53 AM 32.0 °F - 27.0 °F 82% 29.95 in 10.0 mi Calm Calm - N/A   Clear
2:53 AM 32.0 °F - 27.0 °F 82% 29.94 in 10.0 mi Calm Calm - N/A   Clear
3:53 AM 30.0 °F - 27.0 °F 88% 29.94 in 8.0 mi Calm Calm - N/A   Clear
4:53 AM 27.0 °F - 24.1 °F 89% 29.95 in 8.0 mi Calm Calm - N/A   Clear
5:53 AM 26.1 °F - 23.0 °F 88% 29.96 in 7.0 mi Calm Calm - N/A   Clear
6:53 AM 25.0 °F 20.7 °F 21.9 °F 88% 29.99 in 7.0 mi North 3.5 mph - N/A   Clear
7:53 AM 25.0 °F 20.7 °F 21.9 °F 88% 30.02 in 6.0 mi North 3.5 mph - N/A   Clear
8:53 AM 33.1 °F - 28.9 °F 85% 30.03 in 7.0 mi Calm Calm - N/A   Clear
9:53 AM 44.1 °F 39.5 °F 33.1 °F 65% 30.05 in 10.0 mi NNW 8.1 mph - N/A   Clear
10:53 AM 50.0 °F - 33.1 °F 52% 30.06 in 10.0 mi NW 9.2 mph - N/A   Clear
11:53 AM 55.0 °F - 32.0 °F 42% 30.04 in 10.0 mi West 4.6 mph - N/A   Clear
12:53 PM 59.0 °F - 30.9 °F 35% 30.01 in 10.0 mi West 6.9 mph - N/A   Clear
1:53 PM 62.1 °F - 30.0 °F 30% 30.00 in 10.0 mi West 6.9 mph - N/A   Clear
2:53 PM 64.9 °F - 28.0 °F 25% 29.99 in 10.0 mi West 9.2 mph - N/A   Clear
3:53 PM 66.0 °F - 26.1 °F 22% 29.98 in 10.0 mi NW 5.8 mph - N/A   Clear
4:53 PM 66.0 °F - 26.1 °F 22% 29.98 in 10.0 mi Calm Calm - N/A   Clear
5:53 PM 60.1 °F - 27.0 °F 28% 29.99 in 10.0 mi ENE 3.5 mph - N/A   Clear
6:53 PM 55.9 °F - 28.0 °F 34% 30.00 in 10.0 mi SE 3.5 mph - N/A   Clear
7:53 PM 46.9 °F - 30.9 °F 54% 30.02 in 10.0 mi Calm Calm - N/A   Clear
8:53 PM 43.0 °F - 30.9 °F 62% 30.03 in 10.0 mi Calm Calm - N/A   Clear
9:53 PM 37.0 °F 34.5 °F 30.0 °F 76% 30.04 in 10.0 mi NE 3.5 mph - N/A   Clear
10:53 PM 39.9 °F - 30.0 °F 68% 30.04 in 10.0 mi Calm Calm - N/A   Clear
11:53 PM 36.0 °F - 28.9 °F 76% 30.04 in 10.0 mi Calm Calm - N/A   Clear